{"data":{"norad_id":48603,"epoch":"2026-05-25T05:29:02.248800Z","epoch_age_seconds":48569,"freshness":"FRESH","line1":"1 48603U 21041BC  26145.22849825  .00004349  00000+0  16280-3 0  9996","line2":"2 48603  53.1578 118.4751 0001376  97.0485 263.0672 15.29387373278426","mean_motion":15.29387373,"eccentricity":0.0001376,"inclination_deg":53.1578,"raan_deg":118.4751,"arg_perigee_deg":97.0485,"mean_anomaly_deg":263.0672,"bstar":0.0001628,"rev_number":27842,"period_min":94.155347783168,"perigee_km":476.69914619534,"apogee_km":478.58585671414,"semimajor_km":6855.7795014547,"source":"CELESTRAK","updated_at":"2026-05-25T13:38:16.752479Z"}}